This is the latest recevied weather packets stored in our database for station/object NE1CU. If no packets are shown the sender has not sent any weather packets the latest 10 day(s).
| Time | Temp. | Humidity | Pressure | Rain* | Wind** | Luminosity | Snow |
|---|---|---|---|---|---|---|---|
| 1777412951 | 16.67° C | 47% | 1018 hPa | 0 mm | - | 55 W/m² | - |
| 1777412650 | 17.22° C | 45% | 1018.1 hPa | 0 mm | - | 62 W/m² | - |
| 1777412349 | 17.22° C | 41% | 1018.2 hPa | 0 mm | - | 77 W/m² | - |
| 1777412043 | 17.22° C | 41% | 1018.1 hPa | 0 mm | - | 97 W/m² | - |
| 1777411743 | 17.22° C | 40% | 1018.2 hPa | 0 mm | - | 108 W/m² | - |
| 1777411438 | 17.78° C | 40% | 1018.2 hPa | 0 mm | - | 117 W/m² | - |
| 1777411133 | 17.78° C | 40% | 1018.4 hPa | 0 mm | - | 136 W/m² | - |
| 1777410832 | 17.78° C | 40% | 1018.3 hPa | 0 mm | - | 148 W/m² | - |
| 1777410532 | 17.78° C | 40% | 1018.3 hPa | 0 mm | - | 164 W/m² | - |
| 1777410231 | 18.33° C | 39% | 1018.5 hPa | 0 mm | - | 178 W/m² | - |
| 1777409926 | 17.78° C | 40% | 1018.4 hPa | 0 mm | - | 185 W/m² | - |
| 1777409622 | 18.33° C | 39% | 1018.4 hPa | 0 mm | - | 191 W/m² | - |
| 1777409318 | 18.33° C | 39% | 1018.4 hPa | 0 mm | - | 206 W/m² | - |
| 1777409013 | 18.89° C | 39% | 1018.6 hPa | 0 mm | - | 227 W/m² | - |
| 1777408711 | 18.89° C | 39% | 1018.6 hPa | 0 mm | - | 253 W/m² | - |
| 1777408407 | 18.89° C | 38% | 1018.6 hPa | 0 mm | - | 336 W/m² | - |
| 1777408106 | 19.44° C | 37% | 1018.6 hPa | 0 mm | - | 413 W/m² | - |
| 1777407803 | 19.44° C | 39% | 1018.6 hPa | 0 mm | - | 389 W/m² | - |
| 1777407499 | 18.89° C | 39% | 1018.7 hPa | 0 mm | - | 363 W/m² | - |
| 1777407199 | 19.44° C | 39% | 1018.8 hPa | 0 mm | - | 321 W/m² | - |
| 1777406894 | 18.89° C | 39% | 1018.8 hPa | 0 mm | - | 347 W/m² | - |
| 1777406589 | 19.44° C | 38% | 1019 hPa | 0 mm | - | 327 W/m² | - |
| 1777406286 | 19.44° C | 38% | 1018.8 hPa | 0 mm | - | 322 W/m² | - |
| 1777405984 | 20° C | 37% | 1019.2 hPa | 0 mm | - | 342 W/m² | - |
| 1777405681 | 20.56° C | 36% | 1019.2 hPa | 0 mm | - | 404 W/m² | - |
* Rain latest hour (hover to see other rain measurements)
** Current wind speed in m/s (hover to see current wind gust speed)